Location: Newark
(21.1200°N, 73.4000°E)
Time: 22:50:34
(UTC+00:00)

Explorer 7 - All Passes

Search period start: 17 January 2020 00:00
Search period end: 27 January 2020 00:00
Orbit: 485 x 679 km, 50.3° (Epoch: 17 January)

Date Brightness Start Highest point End Pass type
(mag) Time Alt. Az. Time Alt. Az. Time Alt. Az.
17 Jan - 03:12:05 10° N 03:14:47 16° NE 03:17:35 10° E daylight
17 Jan - 04:51:06 10° NW 04:55:26 52° SW 05:00:01 10° SSE daylight
17 Jan - 18:44:13 10° SW 18:48:00 88° SE 18:51:45 10° NE night (unlit)
18 Jan - 03:16:07 10° NNW 03:19:50 27° NE 03:23:44 10° ESE daylight
18 Jan - 04:56:30 10° WNW 05:00:17 27° SW 05:04:15 10° S daylight
18 Jan - 17:11:37 10° SE 17:12:45 11° SE 17:13:52 10° ESE night (unlit)
18 Jan - 18:49:20 10° WSW 18:52:55 41° NW 18:56:28 10° NNE night (unlit)
19 Jan - 03:20:35 10° NNW 03:24:48 50° NE 03:29:15 10° ESE daylight
19 Jan - 05:02:43 10° W 05:05:07 14° SW 05:07:35 10° SSW daylight
19 Jan - 17:14:28 10° S 17:17:34 23° SE 17:20:36 10° ENE night (unlit)
19 Jan - 18:55:01 10° W 18:57:55 21° NW 19:00:48 10° N night (unlit)
20 Jan - 01:48:19 10° NNE 01:48:55 10° NE 01:49:31 10° NE daylight
20 Jan - 03:25:22 10° NW 03:29:42 83° SW 03:34:18 10° SE daylight
20 Jan - 17:18:40 10° SSW 17:22:25 50° SE 17:26:03 10° NE night (unlit)
20 Jan - 19:01:43 10° WNW 19:03:00 11° NW 19:04:16 10° NNW night (unlit)
21 Jan - 01:51:06 10° N 01:54:01 18° NE 01:57:03 10° E daylight
21 Jan - 03:30:29 10° WNW 03:34:34 41° SW 03:38:54 10° SSE daylight
21 Jan - 17:23:27 10° SW 17:27:17 72° NW 17:31:02 10° NE night (unlit)
22 Jan - 01:55:16 10° NNW 01:59:01 32° NE 02:03:00 10° ESE daylight
22 Jan - 03:36:06 10° WNW 03:39:25 21° SW 03:42:53 10° S daylight
22 Jan - 15:49:46 10° SSE 15:51:58 15° SE 15:54:09 10° E night (unlit)
22 Jan - 17:28:43 10° WSW 17:32:13 33° NW 17:35:38 10° NNE night (unlit)
23 Jan - 01:59:50 10° NNW 02:03:58 61° NE 02:08:23 10° SE daylight
23 Jan - 03:43:12 10° WSW 03:44:15 11° SW 03:45:20 10° SW daylight
23 Jan - 15:53:20 10° S 15:56:48 30° SE 16:00:10 10° ENE night (unlit)
23 Jan - 17:34:36 10° W 17:37:13 17° NW 17:39:49 10° N night (unlit)
24 Jan - 00:26:41 10° NNE 00:28:11 12° NE 00:29:42 10° ENE visible
24 Jan - 02:04:42 10° NW 02:08:52 66° SW 02:13:17 10° SSE daylight
24 Jan - 15:57:44 10° SSW 16:01:40 66° SE 16:05:26 10° NE night (unlit)
25 Jan - 00:30:10 10° N 00:33:16 20° NE 00:36:29 10° E visible
25 Jan - 02:09:57 10° WNW 02:13:43 32° SW 02:17:42 10° SSE daylight
25 Jan - 16:02:40 10° SW 16:06:33 55° NW 16:10:17 10° NNE night (unlit)
26 Jan - 00:34:27 10° NNW 00:38:14 37° NE 00:42:15 10° ESE visible
26 Jan - 02:15:51 10° W 02:18:34 17° SW 02:21:23 10° SSW daylight
26 Jan - 14:28:17 10° S 14:31:11 19° SE 14:34:00 10° E visible
26 Jan - 16:08:07 10° WSW 16:11:30 27° NW 16:14:47 10° NNE night (unlit)
